Regional Weather Roundup
Issued by NWS

Home | Current Version | Previous Version | Text Only | Print | Product List | Glossary On
Versions: 1 2 3 4 5 6 7 8 9 10 11 12 13 14 15 16 17 18 19 20 21 22 23 24 25 26 27 28 29 30 31 32 33 34 35 36 37 38 39 40 41 42 43 44 45 46 47 48 49 50
000
ASUS43 KDTX 292110
RWRMI
MICHIGAN HOURLY REGIONAL WEATHER ROUNDUP
NATIONAL WEATHER SERVICE DETROIT/PONTIAC MI
400 PM EST THU JAN 29 2015

NOTE: "FAIR" INDICATES FEW OR NO CLOUDS BELOW 12,000 FEET WITH NO
SIGNIFICANT WEATHER AND/OR OBSTRUCTION TO VISIBILITY.

MIZ047>049-052>055-059>063-066>070-074>076-081>083-292200-
SOUTHEAST LOWER MICHIGAN

CITY           SKY/WX    TMP DP  RH WIND       PRES   REMARKS
ADRIAN         LGT SNOW  33  29  85 NW10      29.82R FOG
ALMA           CLOUDY    33  27  80 NW12G20   29.83R
ANN ARBOR      LGT SNOW  33  29  85 NW12      29.79R FOG
BAD AXE        LGT SNOW  28  26  94 NW7       29.76R
DETROIT CITY   SNOW      33  29  85 NW9       29.77R VSB 1/2
DETROIT        LGT SNOW  32  30  92 W10       29.78R VSB 3/4
FLINT          LGT SNOW  32  27  81 NW12      29.79R VSB 1
GROSSE ILE     LGT SNOW  34  30  86 NW9       29.76R
HILLSDALE      LGT SNOW  33  31  93 NW13G22   29.81R
HOWELL         LGT SNOW  31  28  89 NW14G20   29.79R

CITY           SKY/WX    TMP DP  RH WIND       PRES   REMARKS
JACKSON        LGT SNOW  32  29  88 NW10G17   29.82R VSB 1
LAMBERTVILLE   LGT SNOW  34  32  93 NW8       29.79R VSB 1
LANSING        CLOUDY    31  27  85 NW10      29.84R FOG
LAPEER         NOT AVBL
MASON          CLOUDY    31  28  87 NW9G17    29.81R FOG
MONROE         LGT SNOW  34  30  86 NW10      29.77R
MT. CLEMENS    LGT SNOW  32  30  93 NW10      29.74R VSB 5/8
PONTIAC        LGT SNOW  30  27  88 NW14      29.75R FOG
PORT HOPE        N/A     29  25  85 NW8       29.74R
PORT HURON     SNOW      30  28  93 NW8       29.75R VSB 1/2
TRI CITIES     CLOUDY    34  26  72 NW12      29.80R
YPSILANTI      CLOUDY    35  29  78 NW12      29.79R HAZE
$$
MIZ043>046-050>051-056>058-064>065-071>073-077>080-292200-
SOUTHWEST LOWER MICHIGAN

CITY           SKY/WX    TMP DP  RH WIND       PRES   REMARKS
BATTLE CREEK   CLOUDY    33  27  78 NW15      29.87R HAZE
BENTON HARBOR  CLOUDY    32  30  92 NW12G23   29.95R FOG
BIG RAPIDS     CLOUDY    32  29  90 NW14G21   29.84R FOG
COLDWATER      CLOUDY    32  29  89 NW10      29.84R
HOLLAND        CLOUDY    35  27  72 NW16G22   29.92R
GRAND RAPIDS   LGT SNOW  32  27  81 NW18      29.88R
KALAMAZOO      CLOUDY    33  27  78 NW13G24   29.88R HAZE
MARSHALL       CLOUDY    31  28  88 NW12G17   29.84R
MUSKEGON       CLOUDY    34  26  72 N23G35    29.93R
$$
MIZ016>042-292200-
NORTHERN LOWER MICHIGAN

CITY           SKY/WX    TMP DP  RH WIND       PRES   REMARKS
ALPENA         CLOUDY    30  25  81 NW8       29.76R
BEAVER ISLAND  CLOUDY    27  23  85 NW12G21   29.88R
BELLAIRE       CLOUDY    31  25  77 NW10G22   29.87R
CADILLAC       CLOUDY    29  23  77 NW17G35   29.82R
CHARLEVOIX     CLOUDY    29  25  86 NW20G32   29.90R FOG
FRANKFORT      CLOUDY    31  26  80 N13G23    29.91R
GAYLORD        CLOUDY    27  26  96 NW13G23   29.78R
GRAYLING       LGT SNOW  29  27  92 NW18G25   29.80R
HARBOR SPRINGS CLOUDY    29  25  84 W18G25    29.83R
HOUGHTON LAKE  LGT SNOW  29  26  89 NW10      29.79R FOG
MANISTEE       CLOUDY    32  23  69 N13G23    29.92R
OSCODA         CLOUDY    30  26  83 NW12      29.75R
PELLSTON       CLOUDY    29  26  89 NW26G33   29.82R
TRAVERSE CITY  CLOUDY    32  22  66 N20G36    29.88R
$$
MIZ007>008-015-292200-
EASTERN UPPER MICHIGAN

CITY           SKY/WX    TMP DP  RH WIND       PRES   REMARKS
KINROSS        CLOUDY    28  27  93 NW21G30   29.76R
MACKINAC ISLAN CLOUDY    30  28  90 NW17G30   29.79R
NEWBERRY       CLOUDY    23  20  91 NW22G30   29.84R FOG
S. S. MARIE    LGT SNOW  29  26  89 W15G23    29.76R FOG
$$
MIZ004>006-011>014-085-292200-
CENTRAL UPPER MICHIGAN

CITY           SKY/WX    TMP DP  RH WIND       PRES   REMARKS
MANISTIQUE     LGT SNOW  23  19  86 NW23G33   29.91R
ESCANABA       CLOUDY    27  19  74 N15G23    29.95R
MENOMINEE      CLOUDY    32  19  59 N20G30    29.96R
SAWYER-GWINN   LGT SNOW  21  18  86 N20G28    29.96R VSB 3/4
$$
MIZ001>003-009>011-084-292200-
WESTERN UPPER MICHIGAN

CITY           SKY/WX    TMP DP  RH WIND       PRES   REMARKS
IRON MOUNTAIN  MIX PCPN  26  17  68 NW26G37   29.97R
HOUGHTON       CLOUDY    18   9  68 N22G31    30.07R
COPPER HARBOR    N/A     20  14  77 NE29G38   30.08R
IRONWOOD       CLOUDY    21  14  73 N15G28    30.11R
$$

ABBREVIATIONS USED IN REMARKS
   TC - TEMPERATURE IN CELSIUS
  WCI - WIND CHILL INDEX
   HX - HEAT INDEX
  VSB - VISIBILITY




USA.gov is the U.S. government's official web portal to all federal, state and local government web resources and services.